This is the latest recevied weather packets stored in our database for station/object DG4MJS-10. If no packets are shown the sender has not sent any weather packets the latest 10 day(s).
| Time | Temp. | Humidity | Pressure | Rain* | Wind** | Luminosity | Snow |
|---|---|---|---|---|---|---|---|
| 1787821167 | 22.22° C | 70% | 1015 hPa | - | - | - | - |
| 1787820267 | 21.67° C | 70% | 1015.2 hPa | - | - | - | - |
| 1787819367 | 21.11° C | 73% | 1015.3 hPa | - | - | - | - |
| 1787818467 | 21.11° C | 72% | 1015.2 hPa | - | - | - | - |
| 1787817567 | 21.11° C | 72% | 1015.4 hPa | - | - | - | - |
| 1787816667 | 21.11° C | 72% | 1015.5 hPa | - | - | - | - |
| 1787815767 | 21.11° C | 73% | 1015.1 hPa | - | - | - | - |
| 1787814867 | 20.56° C | 74% | 1015 hPa | - | - | - | - |
| 1787813967 | 20.56° C | 74% | 1015 hPa | - | - | - | - |
| 1787813066 | 20.56° C | 75% | 1015 hPa | - | - | - | - |
| 1787812166 | 20° C | 76% | 1014.9 hPa | - | - | - | - |
| 1787811266 | 20° C | 75% | 1015.1 hPa | - | - | - | - |
| 1787810365 | 20° C | 75% | 1014.8 hPa | - | - | - | - |
| 1787809465 | 20° C | 75% | 1015 hPa | - | - | - | - |
| 1787808565 | 19.44° C | 75% | 1015 hPa | - | - | - | - |
| 1787807665 | 19.44° C | 75% | 1015 hPa | - | - | - | - |
| 1787806765 | 19.44° C | 74% | 1015.1 hPa | - | - | - | - |
| 1787805865 | 19.44° C | 74% | 1015.1 hPa | - | - | - | - |
| 1787804965 | 19.44° C | 74% | 1015 hPa | - | - | - | - |
| 1787804067 | 19.44° C | 74% | 1015 hPa | - | - | - | - |
| 1787803167 | 19.44° C | 74% | 1014.9 hPa | - | - | - | - |
| 1787802267 | 19.44° C | 74% | 1014.9 hPa | - | - | - | - |
| 1787801367 | 19.44° C | 74% | 1014.9 hPa | - | - | - | - |
| 1787800467 | 19.44° C | 74% | 1015.1 hPa | - | - | - | - |
| 1787799567 | 20° C | 73% | 1015.2 hPa | - | - | - | - |
* Rain since midnight (hover to see other rain measurements)
** Current wind speed in m/s (hover to see current wind gust speed)